sat.trackr.live / text

‹ back to catalog

ONEWEB-0618

NORAD 55159 · 2023-004V

PAYLOAD ACTIVE UNKNOWN

§ Identity

Operator
Country
UK
Launch date
2023-01-10
Launch site
AFETR
Launch vehicle
Mass (kg)
RCS (m²)

Purposes: comms

External: N2YO · Heavens-Above · Gunter

§ Orbital elements

Epoch: 2026-05-25T02:37:15.055392Z

Period
95.18 min
Inclination
86.9116°
Eccentricity
0.0013401
Mean motion
15.12941044 rev/d
Perigee alt
518.0 km
Apogee alt
536.5 km
Semi-major
6,905.4 km
B*
2.1710e-4
RAAN
187.0010°
Arg perigee
32.1957°
Mean anomaly
328.0098°
Rev number
17,877

§ Raw data

ONEWEB-06181 55159U 23004V   26145.10920203  .00003865  00000+0  21710-3 0  99942 55159  86.9116 187.0010 0013401  32.1957 328.0098 15.12941044178772

JSON: /api/v1/satellites/55159 · /tle

For live sub-satellite position, see the globe view (requires WebGL).

§ Visibility from observer

Set your observer location to see the next 7 days of passes ≥ 10°. The values pass through the URL so the page stays shareable.

No JS? Fill the form by hand. The geolocation button needs JavaScript.